ARIANE 42P DEB, 44511

Orbit data source: Space-Track

ARIANE 42P DEB, 44511 is space debris in LEO originally from a launch on Mon, 10 Aug 1992 UTC launched from the French Guiana (FRGUI). Debris objects in space refer to the collection of defunct objects orbiting the Earth. Examples of debris include non-operational satellites, rocket bodies, and fragments generated from explosions, collisions, or faulty payload assembly.

Loading next visibility...
Identifier
44511, 1992-052J
Orbit
LEO
Last TLE update
7 hours ago
Origin
Manufacturer
ArianeGroup
Mission
Spacecraft
Bus & Motor
Unknown
Mass
Unknown
Launch date (UTC)
1992-08-10 (33 years ago)
Launch vehicle
Unknown
Launch site
French Guiana (FRGUI)
Object type
Payload
Rocket body
Debris
Shape & HBR
Unknown
Radar Cross Section
Small (<0.1 m²)

Expand to show TLE details & history

TLE from 7 hours ago
0 ARIANE 42P DEB
1 44511U 92052J   25183.61880465  .00000782  00000-0  34749-2 0  9996
2 44511  66.0639 289.3411 0047446 106.7410 253.8822 12.84348112275311
Epoch: 2025-07-02T14:51Z
TLE epoch observation values (Epoch: 2025-07-02T14:51:04.721Z)
Latitude
0.00003°
Longitude
145.67413°
Altitude
1,336.258 km
Speed
7.185 km/s
True Right ascension
19h 17m 21s
True Declination
0° 00' 00"
Sunlit
Object was in full shadow at epoch
Visualization orbit readout
Latitude
0.21153°
Longitude
-34.98759°
Altitude
1,315.111 km
Speed
7.205 km/s
Apparent Right ascension
04h 57m 06s
Apparent Declination
-44° 40' 33"
Sunlit
Object is in daylight
Visualization observer readout
Local Sidereal Time
09:07:15
Azimuth
220.087° SW
Elevation
-11.517°
Doppler factor
1
Orbital elements
Apogee altitude
1,359.132 km
Perigee altitude
1,286.058 km
Semi-major axis
7,700.732 km
Eccentricity
0.00474
Inclination
66.0639°
RAAN
289.3411°
Arg. of periapsis
106.741°
True anomaly
Unknown
Mean anomaly
253.8822°
Eccentric anomaly
Unknown
Mean motion
3.21178 °/min
Orbital period
112.09 mins
BSTAR
0.0034749
Loading maneuver chart data...
Loading SW <> Apogee altitude chart data...
Loading historical data...
Loading historical data...
Loading historical data...
Loading historical data...
Loading historical data...
Loading historical data...
Loading historical data...

ARIANE 42P DEB Visibility forecast

Observer location: undefined°, undefined°

Span
Click to sort rows by Start time (UTC) header in descending order
Start Az.
Max El. time (UTC)
Max El. Az.
Max El.
End time (UTC)
End Az.
13 mins2025-07-03 07:46:04.515Z173.375° S2025-07-03 07:53:04.515Z101.684° ESE33.119°2025-07-03 07:59:04.515Z46.11° ENE
13 mins2025-07-03 09:42:04.515Z241.899° WSW2025-07-03 09:48:04.515Z308.232° NW35.843°2025-07-03 09:55:04.515Z19.314° NNE
5 mins2025-07-03 11:44:04.515Z318.477° NNW2025-07-03 11:46:04.515Z334.693° NNW13.566°2025-07-03 11:49:04.515Z358.365° N
10 mins2025-07-03 15:41:04.515Z356.748° N2025-07-03 15:46:04.515Z41.488° NE19.845°2025-07-03 15:51:04.515Z82.282° E
14 mins2025-07-03 17:36:04.515Z332.904° NNW2025-07-03 17:42:04.515Z23.534° NE44.276°2025-07-03 17:50:04.515Z146.307° SSE
9 mins2025-07-03 19:33:04.515Z292.809° NW2025-07-03 19:37:04.515Z257.87° W19.371°2025-07-03 19:42:04.515Z216.08° SW
|